Location: Newark
(11.0000°N, 10.0000°W)
Time: 12:38:23
(UTC+00:00)

Hubble Space Telescope - Visible Passes

Search period start: 21 October 2019 00:00
Search period end: 31 October 2019 00:00
Orbit: 536 x 540 km, 28.5° (Epoch: 20 October)

Date Brightness Start Highest point End Pass type
(mag) Time Alt. Az. Time Alt. Az. Time Alt. Az.
21 Oct 2.9 06:00:29 10° SSW 06:03:50 24° SSE 06:07:11 10° E visible
22 Oct 2.4 05:49:31 10° SW 05:53:16 33° SSE 05:56:58 10° E visible
23 Oct 1.7 05:38:42 10° SW 05:42:40 47° SSE 05:46:38 10° ENE visible
24 Oct 1.0 05:29:04 17° SW 05:32:05 68° SSE 05:36:11 10° ENE visible
25 Oct 0.6 05:19:51 35° WSW 05:21:31 85° NNW 05:25:38 10° ENE visible
26 Oct 0.7 05:10:33 57° WNW 05:10:58 61° NNW 05:15:02 10° NE visible
27 Oct 1.5 05:01:09 39° N 05:01:09 39° N 05:04:21 10° NE visible
28 Oct 2.5 04:51:39 23° NNE 04:51:39 23° NNE 04:53:37 10° NE visible
29 Oct 3.2 04:42:03 14° NNE 04:42:03 14° NNE 04:42:50 10° NE visible
